This is the latest recevied weather packets stored in our database for station/object W4CAT-13. If no packets are shown the sender has not sent any weather packets the latest 10 day(s).
| Time | Temp. | Humidity | Pressure | Rain* | Wind** | Luminosity | Snow |
|---|---|---|---|---|---|---|---|
| 1778095732 | 13.33° C | 90% | 976 hPa | 0 mm | - | - | - |
| 1778094803 | 12.78° C | 95% | 976 hPa | 0 mm | - | - | - |
| 1778093872 | 12.22° C | 94% | 977 hPa | 0 mm | - | - | - |
| 1778092942 | 11.67° C | 94% | 977 hPa | 0 mm | - | - | - |
| 1778092011 | 11.67° C | 93% | 977 hPa | 0.25 mm | - | - | - |
| 1778091081 | 11.67° C | 94% | 976.3 hPa | 0.25 mm | - | - | - |
| 1778090152 | 11.67° C | 96% | 976 hPa | 0.25 mm | - | - | - |
| 1778089221 | 11.11° C | 97% | 976 hPa | 0.25 mm | - | - | - |
| 1778088291 | 11.11° C | 98% | 976 hPa | 0 mm | - | - | - |
| 1778087361 | 10.56° C | 98% | 976 hPa | 0 mm | - | - | - |
| 1778086431 | 10.56° C | 98% | 976.6 hPa | 0 mm | - | - | - |
| 1778085501 | 10.56° C | 98% | 976.6 hPa | 0 mm | - | - | - |
| 1778084571 | 10.56° C | 98% | 976.3 hPa | 0 mm | - | - | - |
| 1778083641 | 10.56° C | 98% | 976.3 hPa | 0 mm | - | - | - |
| 1778082711 | 10.56° C | 98% | 976 hPa | 0 mm | - | - | - |
| 1778081781 | 10.56° C | 98% | 976.3 hPa | 0 mm | - | - | - |
| 1778080851 | 10.56° C | 98% | 975.9 hPa | 0 mm | - | - | - |
| 1778079921 | 10.56° C | 98% | 976 hPa | 0 mm | - | - | - |
| 1778078991 | 10.56° C | 99% | 975.6 hPa | 0 mm | - | - | - |
| 1778078061 | 10.56° C | 99% | 975.2 hPa | 0 mm | - | - | - |
| 1778077131 | 10.56° C | 99% | 974.7 hPa | 0.25 mm | - | - | - |
| 1778076201 | 10.56° C | 98% | 974.3 hPa | 0.25 mm | - | - | - |
| 1778075301 | 10.56° C | 98% | 974.3 hPa | 0.51 mm | - | - | - |
| 1778074401 | 10.56° C | 98% | 974.3 hPa | 1.02 mm | - | - | - |
| 1778073501 | 10.56° C | 98% | 974.3 hPa | 0.76 mm | - | - | - |
* Rain latest hour (hover to see other rain measurements)
** Current wind speed in m/s (hover to see current wind gust speed)